Time,TemperatureF,DewpointF,PressureIn,WindDirection,WindDirectionDegrees,WindSpeedMPH,WindSpeedGustMPH,Humidity,HourlyPrecipIn,Conditions,Clouds,dailyrainin,SoftwareType,DateUTC
2013-10-12 00:12:00,31.0,25.0,30.16,SE,135,0.0,4.0,77,0.00,,,0.01,,2013-10-12 06:12:00,
2013-10-12 00:22:00,31.0,25.0,30.16,SE,135,1.0,2.0,79,0.00,,,0.01,,2013-10-12 06:22:00,
2013-10-12 00:42:00,31.0,26.0,30.16,South,180,0.0,2.0,80,0.00,,,0.01,,2013-10-12 06:42:00,
2013-10-12 00:52:00,30.0,25.0,30.16,North,0,0.0,0.0,80,0.00,,,0.01,,2013-10-12 06:52:00,
2013-10-12 01:12:00,30.0,25.0,30.16,East,90,2.0,2.0,81,0.00,,,0.01,,2013-10-12 07:12:00,
2013-10-12 01:21:00,30.0,25.0,30.16,South,180,1.0,2.0,81,0.00,,,0.01,,2013-10-12 07:21:00,
2013-10-12 01:42:00,31.0,26.0,30.16,SE,135,0.0,2.0,81,0.00,,,0.01,,2013-10-12 07:42:00,
2013-10-12 01:52:00,30.0,25.0,30.16,South,180,2.0,2.0,81,0.00,,,0.01,,2013-10-12 07:52:00,
2013-10-12 02:12:00,30.0,25.0,30.16,SE,135,2.0,3.0,81,0.00,,,0.01,,2013-10-12 08:12:00,
2013-10-12 02:22:00,30.0,25.0,30.16,SE,135,2.0,3.0,81,0.00,,,0.01,,2013-10-12 08:22:00,
2013-10-12 02:42:00,30.0,25.0,30.16,South,180,0.0,2.0,81,0.00,,,0.01,,2013-10-12 08:42:00,
2013-10-12 02:52:00,30.0,25.0,30.16,SE,135,0.0,2.0,81,0.00,,,0.01,,2013-10-12 08:52:00,
2013-10-12 03:11:00,29.0,24.0,30.16,South,180,0.0,2.0,81,0.00,,,0.01,,2013-10-12 09:11:00,
2013-10-12 03:21:00,29.0,24.0,30.16,SE,135,2.0,2.0,82,0.00,,,0.01,,2013-10-12 09:21:00,
2013-10-12 03:43:00,29.0,25.0,30.16,SE,135,1.0,2.0,83,0.00,,,0.01,,2013-10-12 09:43:00,
2013-10-12 03:54:00,29.0,25.0,30.15,SE,135,0.0,2.0,83,0.00,,,0.01,,2013-10-12 09:54:00,
2013-10-12 04:12:00,30.0,26.0,30.15,South,180,0.0,2.0,84,0.00,,,0.01,,2013-10-12 10:12:00,
2013-10-12 04:23:00,30.0,26.0,30.14,South,180,0.0,2.0,84,0.00,,,0.01,,2013-10-12 10:23:00,
2013-10-12 04:42:00,31.0,27.0,30.14,South,180,0.0,2.0,84,0.00,,,0.01,,2013-10-12 10:42:00,
2013-10-12 04:52:00,31.0,27.0,30.14,SE,135,1.0,2.0,85,0.00,,,0.01,,2013-10-12 10:52:00,
2013-10-12 05:12:00,32.0,28.0,30.15,SE,135,0.0,2.0,84,0.00,,,0.01,,2013-10-12 11:12:00,
2013-10-12 05:22:00,32.0,28.0,30.14,South,180,0.0,1.0,85,0.00,,,0.01,,2013-10-12 11:22:00,
2013-10-12 05:42:00,32.0,28.0,30.14,South,180,0.0,2.0,85,0.00,,,0.01,,2013-10-12 11:42:00,
2013-10-12 05:52:00,33.0,29.0,30.14,SE,135,0.0,0.0,84,0.00,,,0.01,,2013-10-12 11:52:00,
2013-10-12 06:11:00,33.0,29.0,30.14,SE,135,0.0,0.0,84,0.00,,,0.01,,2013-10-12 12:11:00,
2013-10-12 06:22:00,33.0,29.0,30.15,NE,45,0.0,0.0,84,0.00,,,0.01,,2013-10-12 12:22:00,
2013-10-12 06:42:00,33.0,29.0,30.15,South,180,0.0,2.0,84,0.00,,,0.01,,2013-10-12 12:42:00,
2013-10-12 06:52:00,33.0,28.0,30.15,SE,135,0.0,1.0,83,0.00,,,0.01,,2013-10-12 12:52:00,
2013-10-12 07:11:00,33.0,28.0,30.15,South,180,0.0,2.0,83,0.00,,,0.01,,2013-10-12 13:11:00,
2013-10-12 07:21:00,33.0,28.0,30.15,South,180,1.0,2.0,83,0.00,,,0.01,,2013-10-12 13:21:00,
2013-10-12 07:41:00,33.0,29.0,30.15,South,180,0.0,1.0,84,0.00,,,0.01,,2013-10-12 13:41:00,
2013-10-12 07:52:00,33.0,29.0,30.16,South,180,0.0,2.0,84,0.00,,,0.01,,2013-10-12 13:52:00,
2013-10-12 08:12:00,33.0,29.0,30.15,South,180,0.0,1.0,84,0.00,,,0.01,,2013-10-12 14:12:00,
2013-10-12 08:21:00,33.0,29.0,30.15,South,180,0.0,2.0,85,0.00,,,0.01,,2013-10-12 14:21:00,
2013-10-12 08:42:00,33.0,29.0,30.16,South,180,0.0,0.0,85,0.00,,,0.01,,2013-10-12 14:42:00,
2013-10-12 08:52:00,33.0,29.0,30.16,South,180,0.0,0.0,85,0.00,,,0.01,,2013-10-12 14:52:00,
2013-10-12 09:11:00,33.0,29.0,30.16,South,180,0.0,0.0,86,0.00,,,0.01,,2013-10-12 15:11:00,
2013-10-12 09:22:00,34.0,30.0,30.16,South,180,0.0,0.0,86,0.00,,,0.01,,2013-10-12 15:22:00,
2013-10-12 09:43:00,34.0,30.0,30.16,South,180,0.0,0.0,86,0.00,,,0.01,,2013-10-12 15:43:00,
2013-10-12 09:53:00,35.0,31.0,30.16,South,180,0.0,0.0,86,0.00,,,0.01,,2013-10-12 15:53:00,
2013-10-12 10:13:00,35.0,31.0,30.17,South,180,0.0,0.0,86,0.00,,,0.01,,2013-10-12 16:13:00,
2013-10-12 10:23:00,36.0,32.0,30.17,South,180,0.0,0.0,86,0.00,,,0.01,,2013-10-12 16:23:00,
2013-10-12 10:43:00,36.0,32.0,30.17,South,180,0.0,0.0,85,0.00,,,0.01,,2013-10-12 16:43:00,
2013-10-12 10:53:00,37.0,33.0,30.17,South,180,0.0,0.0,84,0.00,,,0.00,,2013-10-12 16:53:00,
2013-10-12 11:13:00,37.0,32.0,30.17,NW,315,0.0,0.0,82,0.00,,,0.00,,2013-10-12 17:13:00,
2013-10-12 11:23:00,38.0,33.0,30.17,NW,315,0.0,0.0,81,0.00,,,0.00,,2013-10-12 17:23:00,
2013-10-12 11:42:00,39.0,33.0,30.18,SW,225,0.0,0.0,79,0.00,,,0.00,,2013-10-12 17:42:00,
2013-10-12 11:53:00,40.0,33.0,30.18,SW,225,0.0,0.0,77,0.00,,,0.00,,2013-10-12 17:53:00,
2013-10-12 12:12:00,41.0,34.0,30.18,SW,225,0.0,2.0,75,0.00,,,0.00,,2013-10-12 18:12:00,
2013-10-12 12:21:00,42.0,34.0,30.17,NW,315,0.0,1.0,72,0.00,,,0.00,,2013-10-12 18:21:00,
2013-10-12 12:42:00,42.0,33.0,30.18,SW,225,0.0,2.0,70,0.00,,,0.00,,2013-10-12 18:42:00,
2013-10-12 12:52:00,43.0,33.0,30.17,West,270,0.0,0.0,68,0.00,,,0.00,,2013-10-12 18:52:00,
2013-10-12 13:11:00,44.0,34.0,30.17,SW,225,0.0,2.0,68,0.00,,,0.00,,2013-10-12 19:11:00,
2013-10-12 13:22:00,45.0,34.0,30.17,North,0,1.0,2.0,66,0.00,,,0.00,,2013-10-12 19:22:00,
2013-10-12 13:42:00,46.0,35.0,30.17,NE,45,0.0,2.0,65,0.00,,,0.00,,2013-10-12 19:42:00,
2013-10-12 13:52:00,47.0,35.0,30.17,North,0,1.0,2.0,63,0.00,,,0.00,,2013-10-12 19:52:00,
2013-10-12 14:12:00,47.0,35.0,30.17,West,270,2.0,4.0,63,0.00,,,0.00,,2013-10-12 20:12:00,
2013-10-12 14:22:00,46.0,33.0,30.17,North,0,2.0,5.0,61,0.00,,,0.00,,2013-10-12 20:22:00,
2013-10-12 14:42:00,45.0,33.0,30.17,NE,45,1.0,4.0,62,0.00,,,0.00,,2013-10-12 20:42:00,
2013-10-12 14:52:00,45.0,33.0,30.16,North,0,0.0,3.0,63,0.00,,,0.00,,2013-10-12 20:52:00,
2013-10-12 15:11:00,47.0,35.0,30.16,SW,225,0.0,2.0,63,0.00,,,0.00,,2013-10-12 21:11:00,
2013-10-12 15:22:00,47.0,35.0,30.17,West,270,0.0,3.0,62,0.00,,,0.00,,2013-10-12 21:22:00,
2013-10-12 15:43:00,48.0,35.0,30.16,SW,225,0.0,3.0,60,0.00,,,0.00,,2013-10-12 21:43:00,
2013-10-12 15:54:00,48.0,35.0,30.16,SW,225,0.0,2.0,61,0.00,,,0.00,,2013-10-12 21:54:00,
2013-10-12 16:13:00,48.0,34.0,30.17,SW,225,0.0,2.0,59,0.00,,,0.00,,2013-10-12 22:13:00,
2013-10-12 16:24:00,48.0,35.0,30.17,West,270,0.0,1.0,60,0.00,,,0.00,,2013-10-12 22:24:00,
2013-10-12 16:54:00,48.0,34.0,30.17,NW,315,1.0,2.0,58,0.00,,,0.00,,2013-10-12 22:54:00,
2013-10-12 17:12:00,48.0,34.0,30.17,West,270,1.0,3.0,59,0.00,,,0.00,,2013-10-12 23:12:00,
2013-10-12 17:22:00,48.0,34.0,30.18,NW,315,1.0,3.0,57,0.00,,,0.00,,2013-10-12 23:22:00,
2013-10-12 17:42:00,47.0,33.0,30.17,SW,225,0.0,3.0,57,0.00,,,0.00,,2013-10-12 23:42:00,
2013-10-12 17:52:00,46.0,32.0,30.17,West,270,0.0,2.0,58,0.00,,,0.00,,2013-10-12 23:52:00,
2013-10-12 18:11:00,46.0,32.0,30.18,NW,315,2.0,4.0,59,0.00,,,0.00,,2013-10-13 00:11:00,
2013-10-12 18:21:00,46.0,32.0,30.19,North,0,2.0,4.0,59,0.00,,,0.00,,2013-10-13 00:21:00,
2013-10-12 18:42:00,45.0,32.0,30.19,South,180,1.0,2.0,61,0.00,,,0.00,,2013-10-13 00:42:00,
2013-10-12 18:52:00,43.0,31.0,30.19,SE,135,1.0,2.0,62,0.00,,,0.00,,2013-10-13 00:52:00,
2013-10-12 19:12:00,42.0,31.0,30.19,South,180,1.0,2.0,64,0.00,,,0.00,,2013-10-13 01:12:00,
2013-10-12 19:21:00,40.0,30.0,30.19,East,90,0.0,2.0,67,0.00,,,0.00,,2013-10-13 01:21:00,
2013-10-12 19:42:00,38.0,29.0,30.20,SE,135,1.0,2.0,71,0.00,,,0.00,,2013-10-13 01:42:00,
2013-10-12 19:52:00,37.0,28.0,30.20,South,180,0.0,2.0,71,0.00,,,0.00,,2013-10-13 01:52:00,
2013-10-12 20:11:00,36.0,28.0,30.20,SE,135,1.0,2.0,72,0.00,,,0.00,,2013-10-13 02:11:00,
2013-10-12 20:22:00,34.0,26.0,30.20,SE,135,1.0,3.0,72,0.00,,,0.00,,2013-10-13 02:22:00,
2013-10-12 20:42:00,33.0,25.0,30.21,SE,135,2.0,3.0,73,0.00,,,0.00,,2013-10-13 02:42:00,
2013-10-12 20:52:00,33.0,26.0,30.22,South,180,0.0,2.0,74,0.00,,,0.00,,2013-10-13 02:52:00,
2013-10-12 21:11:00,32.0,25.0,30.22,SE,135,1.0,2.0,76,0.00,,,0.00,,2013-10-13 03:11:00,
2013-10-12 21:22:00,31.0,25.0,30.22,SE,135,2.0,2.0,77,0.00,,,0.00,,2013-10-13 03:22:00,
2013-10-12 21:44:00,31.0,25.0,30.22,SE,135,1.0,2.0,78,0.00,,,0.00,,2013-10-13 03:44:00,
2013-10-12 21:54:00,30.0,24.0,30.22,SE,135,0.0,2.0,79,0.00,,,0.00,,2013-10-13 03:54:00,
2013-10-12 22:02:00,-999.0,-99.9,30.22,SE,135,1.0,2.0,-999,-99.99,,,-99.99,,2013-10-13 04:02:00,
2013-10-12 22:13:00,30.0,25.0,30.22,SE,135,1.0,2.0,80,0.00,,,0.00,,2013-10-13 04:13:00,
2013-10-12 22:23:00,29.0,24.0,30.23,SE,135,0.0,2.0,80,0.00,,,0.00,,2013-10-13 04:23:00,
2013-10-12 22:43:00,29.0,24.0,30.22,South,180,1.0,2.0,81,0.00,,,0.00,,2013-10-13 04:43:00,
2013-10-12 22:54:00,29.0,24.0,30.22,SE,135,0.0,2.0,82,0.00,,,0.00,,2013-10-13 04:54:00,
2013-10-12 23:12:00,29.0,24.0,30.23,SE,135,0.0,0.0,82,0.00,,,0.00,,2013-10-13 05:12:00,
2013-10-12 23:23:00,29.0,25.0,30.24,SE,135,1.0,2.0,83,0.00,,,0.00,,2013-10-13 05:23:00,
2013-10-12 23:43:00,29.0,25.0,30.24,South,180,1.0,3.0,84,0.00,,,0.00,,2013-10-13 05:43:00,
2013-10-12 23:52:00,29.0,25.0,30.24,SE,135,1.0,2.0,84,0.00,,,0.00,,2013-10-13 05:52:00,